Theta_e
323 325 325 327 327 327 326 327 327 329 331 332 333 333 333 333 333 334 332 330 330 329 330 329 330 331 333 333 332 328 328 331
323 324 325 326 326 325 324 326 327 328 329 331 332 333 334 334 333 332 332 331 330 332 332 331 331 330 332 332 330 328 330 332
323 323 325 326 325 324 323 325 326 328 328 329 331 333 334 333 332 332 332 332 332 332 332 331 332 331 329 330 329 333 332 330
322 324 325 325 324 323 323 324 325 328 327 328 330 330 331 332 332 332 332 332 332 331 331 331 331 328 307 315 325 331 333 333
323 324 326 326 325 323 323 324 325 326 327 327 328 329 330 331 331 331 331 332 334 332 332 332 331 330 305 306 311 331 334 333
324 326 327 327 325 324 324 325 323 324 326 326 328 328 330 331 332 331 333 334 334 333 333 333 331 326 303 303 309 333 334 333
327 328 329 328 325 324 323 323 322 322 323 326 327 328 329 329 330 333 334 334 334 333 333 333 332 328 302 303 316 328 332 331
328 329 329 327 326 325 324 322 321 321 322 326 328 329 329 329 332 332 335 334 332 331 332 334 321 330 301 302 315 328 331 330
330 330 328 327 326 325 323 322 321 322 323 326 328 330 331 332 334 333 334 332 331 331 332 333 332 327 323 300 305 333 332 329
329 328 328 328 327 325 323 322 323 323 322 324 327 330 329 331 334 332 332 331 331 331 332 331 332 330 314 303 301 312 317 331
329 329 327 327 327 325 323 324 323 323 323 323 326 329 330 332 332 331 328 329 327 328 328 328 330 331 330 301 301 304 308 328
329 329 326 326 327 325 325 326 324 323 323 324 325 327 329 331 330 329 327 325 323 324 326 327 328 330 330 330 328 326 308 323
329 328 327 326 327 326 326 325 324 323 324 324 324 324 328 329 330 329 327 329 322 322 323 326 327 328 329 321 323 330 331 322
328 329 328 327 327 326 326 325 324 324 324 324 322 321 323 327 329 329 297 304 305 303 304 314 323 308 303 303 305 302 299 301
326 328 329 328 327 327 327 326 324 324 328 328 323 317 321 321 324 327 326 316 302 300 301 302 303 306 298 298 297 295 295 300
328 327 329 329 328 327 329 327 325 325 329 308 325 321 321 320 322 323 324 324 324 325 303 308 300 296 294 294 294 300 314 311
329 329 327 329 328 328 330 329 327 325 326 323 324 323 322 318 321 322 322 323 322 323 324 306 302 294 292 291 294 323 323 323
328 326 327 327 328 329 330 330 330 328 327 312 315 322 322 321 321 321 320 321 322 323 323 325 325 313 320 318 314 320 324 322
326 330 330 329 328 330 330 330 333 328 327 325 315 322 321 321 320 321 321 321 320 321 323 322 305 324 325 326 324 324 325 325
323 331 331 331 331 330 330 330 331 329 329 327 323 322 322 321 321 321 321 321 321 321 322 319 296 324 324 324 326 325 324 325
Wind_Speed
19 18 17 16 16 15 14 12 12 11 9 8 7 6 6 6 7 6 7 7 6 5 5 6 5 4 4 5 10 5 3 5
19 18 17 16 15 14 13 12 11 10 9 7 7 6 6 7 8 7 7 7 7 7 6 7 6 5 6 8 6 5 4 6
19 18 17 16 15 14 13 12 11 10 9 9 8 6 7 9 9 8 7 7 6 7 8 7 8 6 5 7 4 7 7 7
19 19 18 17 16 15 13 12 12 11 10 10 8 8 9 9 9 9 8 7 7 7 6 7 7 7 8 8 3 3 7 9
20 20 18 16 16 15 14 13 13 12 11 11 10 9 10 10 10 10 8 8 7 7 8 7 8 9 5 2 8 3 6 5
19 17 17 16 16 16 14 14 14 13 12 12 11 11 11 10 10 10 8 7 7 6 5 7 7 8 5 1 5 5 5 8
13 17 18 17 17 16 16 15 14 14 13 12 12 11 11 10 10 9 8 8 7 5 6 8 10 9 5 5 3 4 6 9
14 17 18 18 17 17 16 16 15 14 14 14 13 12 11 10 10 9 8 8 7 6 6 8 9 10 6 6 5 6 8 6
16 18 17 18 18 18 17 16 15 14 14 13 13 12 11 9 9 8 7 7 8 6 7 8 8 9 7 1 3 8 6 8
17 17 17 18 19 18 17 17 15 15 14 14 13 11 9 9 9 8 8 8 8 8 9 8 9 8 8 4 2 5 5 9
16 17 18 17 19 19 19 17 17 16 15 14 13 13 10 11 10 10 8 8 7 8 8 8 8 8 8 8 6 6 6 5
15 18 19 19 19 19 18 18 18 17 16 15 13 13 12 11 10 9 8 7 7 7 8 8 8 9 9 8 7 6 7 8
14 17 18 20 19 19 18 19 19 17 16 15 14 12 12 11 10 9 9 8 6 7 7 8 9 9 9 11 10 9 8 9
13 16 17 20 20 20 19 20 19 18 17 14 13 12 12 11 11 8 8 8 8 6 1 3 8 6 15 12 8 8 12 14
13 17 19 19 20 21 20 21 21 20 15 15 13 12 12 12 11 11 10 3 7 4 1 1 6 13 13 13 11 10 10 9
11 13 16 19 20 22 22 21 21 21 19 15 13 14 12 12 12 11 10 11 11 9 6 7 6 9 12 12 13 12 6 6
8 13 16 19 20 21 22 22 22 22 18 15 15 13 13 13 12 11 11 11 11 11 11 6 8 9 9 10 15 10 11 11
11 8 14 17 19 20 23 23 21 18 18 17 16 13 13 13 12 12 12 12 11 11 11 11 11 9 9 10 11 11 11 11
15 10 12 14 17 17 20 22 21 17 16 16 17 14 14 14 14 13 13 12 12 12 11 11 14 13 13 13 13 13 14 13
16 12 7 12 13 16 18 20 20 17 16 16 17 17 14 14 14 14 14 14 14 13 12 11 17 13 13 13 14 14 14 15
Wind_Direction
149 152 154 153 153 157 157 166 164 162 162 157 146 149 159 167 149 147 169 171 176 170 151 150 145 115 103 81 75 64 93 123
153 157 157 155 158 162 158 168 158 157 162 153 140 144 147 153 142 147 159 167 166 154 140 120 123 102 85 87 86 99 81 89
159 162 160 156 163 161 162 162 158 158 153 145 130 129 136 143 142 148 147 159 151 138 138 131 116 124 92 103 111 111 127 118
164 165 160 163 165 166 162 162 156 159 154 137 137 137 136 137 141 142 147 133 136 136 136 132 127 89 55 20 22 103 107 104
170 167 164 165 167 166 165 161 160 160 160 145 144 144 139 144 144 143 137 143 136 135 141 142 122 119 114 35 338 110 107 102
172 167 164 167 167 166 166 162 165 165 163 157 151 152 142 141 146 137 142 148 143 140 148 133 128 109 138 150 324 108 110 111
182 167 164 165 168 165 169 167 171 168 166 163 162 154 150 146 134 141 149 154 138 134 138 147 128 132 161 191 170 127 138 110
180 175 163 166 170 168 171 173 175 173 170 169 169 159 156 153 134 138 149 153 146 141 134 126 120 131 159 200 255 137 118 114
180 174 174 167 168 170 178 176 180 176 169 170 172 168 166 156 143 143 147 164 135 134 111 125 127 128 138 118 337 138 142 127
183 176 173 172 171 174 181 179 180 176 170 172 171 170 186 162 159 152 150 142 148 145 138 148 130 146 130 125 41 43 125 141
183 180 172 178 177 181 181 178 180 175 173 174 171 175 187 162 166 162 157 168 156 160 160 142 140 146 146 110 88 121 37 145
187 186 179 178 184 188 186 176 182 175 176 176 175 181 179 175 179 175 174 177 172 174 165 154 149 151 146 157 154 152 137 117
196 196 185 180 184 190 187 180 181 178 178 178 180 185 187 179 199 183 186 182 186 180 171 163 165 171 164 162 165 168 174 137
210 202 191 187 184 188 187 184 183 182 183 182 184 185 183 189 191 177 59 29 124 65 2 210 164 125 132 153 154 112 117 146
246 211 204 193 188 188 188 187 183 186 192 184 183 197 182 194 193 192 189 142 72 114 40 225 18 147 152 156 147 135 155 163
285 223 216 203 196 194 188 190 187 188 190 182 195 195 188 192 193 197 199 192 195 194 198 212 185 147 148 145 139 143 154 225
291 266 223 210 201 201 192 191 190 192 187 189 199 189 195 195 189 196 200 198 192 195 177 177 117 105 127 145 172 207 203 208
333 260 235 224 209 203 197 193 192 193 193 192 191 196 195 194 198 196 199 202 200 204 201 187 164 161 183 185 198 218 228 219
325 301 274 243 219 212 203 195 190 193 190 184 187 204 200 195 201 201 200 200 204 206 208 196 163 193 201 204 200 210 218 226
326 311 258 249 238 220 209 198 196 203 191 185 187 204 197 198 203 203 205 207 206 206 206 193 161 201 214 209 210 207 216 222